KD5NDU-15 Weather Reports


Display with metric or nautical units.
time (UTC)temp
F
wind
direction
speed
MPH
gust
MPH
rain 1hr
in
rain 24hr
in
rain mn
in
humidity
%
barometer
mb
20260903082135 76 197 0.0 0.0 0.00 0.00 0.00 90 1015.9
20260903081635 76 197 0.0 0.0 0.00 0.00 0.00 89 1015.9
20260903081135 76 197 0.0 0.0 0.00 0.00 0.00 88 1015.8
20260903080635 76 197 0.0 0.0 0.00 0.00 0.00 88 1015.8
20260903080135 76 197 0.0 0.0 0.00 0.00 0.00 88 1015.8
20260903075635 76 197 0.0 0.0 0.00 0.00 0.00 88 1015.8
20260903075135 76 197 0.0 0.0 0.00 0.00 0.00 88 1015.8
20260903074635 76 197 0.0 0.0 0.00 0.00 0.00 88 1015.9
20260903074135 76 197 0.0 0.0 0.00 0.00 0.00 88 1015.8
20260903073635 76 197 0.0 0.0 0.00 0.00 0.00 88 1015.8
20260903073135 76 197 0.0 0.0 0.00 0.00 0.00 88 1015.9
20260903072635 76 197 0.0 0.0 0.00 0.00 0.00 88 1016.0
20260903072135 76 197 0.0 0.0 0.00 0.00 0.00 88 1016.0
20260903071635 76 197 0.0 0.0 0.00 0.00 0.00 88 1016.0
20260903071135 76 197 0.0 0.0 0.00 0.00 0.00 89 1016.1
20260903070635 77 197 0.0 0.0 0.00 0.00 0.00 88 1016.0
20260903070135 77 197 0.0 0.0 0.00 0.00 0.00 88 1016.1
20260903065635 77 197 0.0 0.0 0.00 0.00 0.00 87 1016.1
20260903065135 77 197 0.0 0.0 0.00 0.00 0.00 87 1016.1
20260903064635 77 197 0.0 0.0 0.00 0.00 0.00 87 1016.2
20260903064135 77 197 0.0 0.0 0.00 0.00 0.00 87 1016.2
20260903063635 77 197 0.0 0.0 0.00 0.00 0.00 87 1016.2
20260903063135 78 197 0.0 0.0 0.00 0.00 0.00 86 1016.2
20260903062635 78 197 0.0 0.0 0.00 0.00 0.00 87 1016.2
20260903062135 78 197 0.0 0.0 0.00 0.00 0.00 86 1016.3
20260903061635 78 197 0.0 0.0 0.00 0.00 0.00 87 1016.3
20260903061135 78 197 0.0 0.0 0.00 0.00 0.00 85 1016.3
20260903060635 78 197 0.0 0.0 0.00 0.00 0.00 86 1016.2
20260903060135 78 197 0.0 0.0 0.00 0.00 0.00 86 1016.3
20260903055635 78 197 0.0 0.0 0.00 0.00 0.00 85 1016.4
20260903055135 78 197 0.0 0.0 0.00 0.00 0.00 85 1016.4
20260903054635 78 197 0.0 0.0 0.00 0.00 0.00 84 1016.3
20260903054135 78 197 0.0 0.0 0.00 0.00 0.00 84 1016.3
20260903053635 78 197 0.0 0.0 0.00 0.00 0.00 85 1016.3
20260903053135 78 197 0.0 0.0 0.00 0.00 0.00 85 1016.3
20260903052635 78 197 0.0 0.0 0.00 0.00 0.00 85 1016.2
20260903052135 78 197 0.0 0.0 0.00 0.00 0.00 84 1016.1
20260903051635 78 197 0.0 0.0 0.00 0.00 0.00 84 1016.2
20260903051135 78 197 0.0 0.0 0.00 0.00 0.00 84 1016.2
20260903050635 79 197 0.0 0.0 0.00 0.00 0.00 84 1016.2
20260903050135 79 197 0.0 0.0 0.00 0.00 0.00 83 1016.2
20260903045635 79 197 0.0 0.0 0.00 0.00 0.00 83 1016.1
20260903045135 79 197 0.0 0.0 0.00 0.00 0.00 83 1016.0
20260903044635 79 197 0.0 0.0 0.00 0.00 0.00 82 1016.0
20260903044135 80 197 0.0 0.0 0.00 0.00 0.00 82 1016.0
20260903043635 80 197 0.0 0.0 0.00 0.00 0.00 81 1015.9
20260903043135 80 197 0.0 0.0 0.00 0.00 0.00 80 1016.0
20260903042635 80 197 0.0 0.0 0.00 0.00 0.00 81 1016.0
20260903042135 81 197 0.0 0.0 0.00 0.00 0.00 79 1016.1
20260903041635 81 197 0.0 0.0 0.00 0.00 0.00 79 1016.1
20260903041135 81 197 0.0 0.0 0.00 0.00 0.00 79 1016.2
20260903040635 81 197 0.0 0.0 0.00 0.00 0.00 79 1016.1
20260903040135 81 197 0.0 0.0 0.00 0.00 0.00 79 1016.2
20260903035635 81 197 0.0 0.0 0.00 0.00 0.00 78 1016.2
20260903035135 81 197 0.0 0.0 0.00 0.00 0.00 78 1016.2
20260903034635 81 197 0.0 0.0 0.00 0.00 0.00 78 1016.1
20260903034135 81 197 0.0 0.0 0.00 0.00 0.00 78 1016.1
20260903033635 81 197 0.0 0.0 0.00 0.00 0.00 79 1016.2
20260903033135 81 197 0.0 1.0 0.00 0.00 0.00 79 1016.3
20260903032635 81 197 0.0 0.0 0.00 0.00 0.00 78 1016.4
20260903032135 81 197 0.0 0.0 0.00 0.00 0.00 78 1016.4
20260903031635 81 197 0.0 0.0 0.00 0.00 0.00 78 1016.4
20260903031135 81 197 0.0 0.0 0.00 0.00 0.00 78 1016.3
20260903030635 81 197 0.0 1.0 0.00 0.00 0.00 78 1016.2
20260903030135 82 197 0.0 2.0 0.00 0.00 0.00 78 1016.1
20260903025635 83 198 0.0 2.0 0.00 0.00 0.00 76 1016.3
20260903025135 85 191 1.0 2.0 0.00 0.00 0.00 73 1016.2
20260903024635 85 189 1.0 3.0 0.00 0.00 0.00 70 1016.2
20260903024135 86 186 1.0 3.0 0.00 0.00 0.00 69 1016.1
20260903023635 86 173 1.0 2.0 0.00 0.00 0.00 69 1016.1
20260903023135 86 188 1.0 3.0 0.00 0.00 0.00 68 1016.2
20260903022635 86 186 1.0 3.0 0.00 0.00 0.00 68 1016.1
20260903022135 87 166 1.0 2.0 0.00 0.00 0.00 67 1016.2
20260903021635 87 165 0.0 3.0 0.00 0.00 0.00 67 1016.1
20260903021136 87 195 0.0 0.0 0.00 0.00 0.00 66 1016.2
20260903020636 87 195 1.0 2.0 0.00 0.00 0.00 66 1016.1
20260903020136 88 198 1.0 3.0 0.00 0.00 0.00 65 1015.9
20260903015636 88 210 1.0 2.0 0.00 0.00 0.00 65 1015.8
20260903015136 88 174 1.0 3.0 0.00 0.00 0.00 65 1015.7
20260903014636 88 199 1.0 2.0 0.00 0.00 0.00 64 1015.7
20260903014136 88 199 0.0 2.0 0.00 0.00 0.00 64 1015.7
20260903013636 89 200 0.0 1.0 0.00 0.00 0.00 64 1015.6
20260903013136 89 200 1.0 1.0 0.00 0.00 0.00 63 1015.6
20260903012636 89 200 1.0 1.0 0.00 0.00 0.00 63 1015.5
20260903012136 89 200 1.0 2.0 0.00 0.00 0.00 62 1015.3
20260903011636 89 202 1.0 3.0 0.00 0.00 0.00 63 1015.3
20260903011136 89 185 0.0 3.0 0.00 0.00 0.00 63 1015.4
20260903010636 89 201 0.0 2.0 0.00 0.00 0.00 62 1015.3
20260903010136 89 211 1.0 1.0 0.00 0.00 0.00 62 1015.3
20260903005636 90 211 2.0 2.0 0.00 0.00 0.00 61 1015.2
20260903005136 90 227 2.0 4.0 0.00 0.00 0.00 61 1015.2
20260903004636 90 216 1.0 4.0 0.00 0.00 0.00 60 1015.2
20260903004136 91 206 1.0 3.0 0.00 0.00 0.00 60 1015.2
20260903003636 91 194 1.0 3.0 0.00 0.00 0.00 59 1015.2
20260903003136 91 222 2.0 4.0 0.00 0.00 0.00 58 1015.2
20260903002636 92 203 2.0 3.0 0.00 0.00 0.00 57 1015.1
20260903002136 92 193 2.0 3.0 0.00 0.00 0.00 56 1015.1
20260903001636 93 210 1.0 3.0 0.00 0.00 0.00 55 1015.0
20260903001136 93 170 1.0 3.0 0.00 0.00 0.00 54 1015.0
20260903000636 94 167 1.0 3.0 0.00 0.00 0.00 53 1015.0
20260903000136 94 185 2.0 3.0 0.00 0.00 0.00 52 1015.2
20260902235636 94 185 2.0 3.0 0.00 0.00 0.00 51 1015.2
20260902235136 94 198 1.0 4.0 0.00 0.00 0.00 50 1015.2
20260902234636 95 198 2.0 3.0 0.00 0.00 0.00 50 1015.1
20260902234136 95 200 2.0 4.0 0.00 0.00 0.00 49 1015.2
20260902233636 95 203 2.0 5.0 0.00 0.00 0.00 49 1015.2
20260902233136 95 210 3.0 6.0 0.00 0.00 0.00 49 1015.2
20260902232636 96 146 3.0 5.0 0.00 0.00 0.00 49 1015.2
20260902232136 96 183 3.0 7.0 0.00 0.00 0.00 49 1015.2
20260902231636 96 195 3.0 6.0 0.00 0.00 0.00 49 1015.1
20260902231136 96 128 3.0 8.0 0.00 0.00 0.00 48 1015.1
20260902230636 97 203 3.0 7.0 0.00 0.00 0.00 47 1015.0
20260902230136 97 207 2.0 4.0 0.00 0.00 0.00 47 1015.1
20260902225636 97 183 2.0 5.0 0.00 0.00 0.00 47 1015.1
20260902225136 98 97 2.0 5.0 0.00 0.00 0.00 46 1015.1
20260902224636 98 155 2.0 5.0 0.00 0.00 0.00 47 1015.0
20260902224136 98 18 2.0 8.0 0.00 0.00 0.00 46 1015.1
20260902223636 98 44 2.0 4.0 0.00 0.00 0.00 46 1015.1
20260902223136 99 122 2.0 5.0 0.00 0.00 0.00 45 1015.1
20260902222636 99 122 2.0 5.0 0.00 0.00 0.00 45 1015.1
20260902222136 99 143 2.0 6.0 0.00 0.00 0.00 46 1015.2
20260902221636 100 163 2.0 7.0 0.00 0.00 0.00 45 1015.2
20260902221136 100 212 3.0 6.0 0.00 0.00 0.00 45 1015.1
20260902220636 100 141 3.0 9.0 0.00 0.00 0.00 45 1015.2
20260902220136 100 195 3.0 4.0 0.00 0.00 0.00 45 1015.1
20260902215636 101 110 2.0 6.0 0.00 0.00 0.00 45 1015.3
20260902215136 101 195 2.0 6.0 0.00 0.00 0.00 44 1015.2
20260902214636 101 214 2.0 5.0 0.00 0.00 0.00 46 1015.3
20260902214136 101 153 2.0 7.0 0.00 0.00 0.00 45 1015.3
20260902213636 101 69 2.0 6.0 0.00 0.00 0.00 45 1015.4
20260902213136 101 40 2.0 6.0 0.00 0.00 0.00 46 1015.3
20260902212636 100 218 3.0 7.0 0.00 0.00 0.00 46 1015.4
20260902212136 100 138 3.0 6.0 0.00 0.00 0.00 45 1015.3
20260902211636 100 73 2.0 4.0 0.00 0.00 0.00 46 1015.2
20260902211136 100 212 2.0 4.0 0.00 0.00 0.00 46 1015.3
20260902210636 99 1 2.0 6.0 0.00 0.00 0.00 47 1015.3
20260902210136 98 162 1.0 3.0 0.00 0.00 0.00 51 1015.4
20260902205636 98 172 1.0 4.0 0.00 0.00 0.00 48 1015.5
20260902205136 99 143 1.0 3.0 0.00 0.00 0.00 49 1015.5
20260902204636 99 103 2.0 5.0 0.00 0.00 0.00 49 1015.5
20260902204136 100 167 1.0 2.0 0.00 0.00 0.00 49 1015.6
20260902203636 98 18 0.0 2.0 0.00 0.00 0.00 51 1015.6
20260902203136 97 128 0.0 1.0 0.00 0.00 0.00 52 1015.6
20260902202636 97 139 1.0 2.0 0.00 0.00 0.00 52 1015.7
20260902202136 97 144 2.0 5.0 0.00 0.00 0.00 52 1015.7
20260902201636 97 165 2.0 5.0 0.00 0.00 0.00 51 1015.9
20260902201136 97 200 2.0 6.0 0.00 0.00 0.00 51 1015.9
20260902200636 98 136 2.0 5.0 0.00 0.00 0.00 51 1016.0
20260902200136 97 100 1.0 4.0 0.00 0.00 0.00 52 1016.1
20260902195636 97 103 1.0 3.0 0.00 0.00 0.00 51 1016.1
20260902195136 98 134 2.0 5.0 0.00 0.00 0.00 50 1016.2
20260902194636 99 151 2.0 5.0 0.00 0.00 0.00 49 1016.3
20260902194136 98 52 1.0 4.0 0.00 0.00 0.00 50 1016.4
20260902193636 97 89 1.0 3.0 0.00 0.00 0.00 51 1016.4
20260902193136 97 99 2.0 3.0 0.00 0.00 0.00 50 1016.6
20260902192636 98 186 2.0 5.0 0.00 0.00 0.00 50 1016.6
20260902192136 98 103 1.0 4.0 0.00 0.00 0.00 51 1016.7
20260902191636 98 193 2.0 4.0 0.00 0.00 0.00 49 1016.8
20260902191136 98 167 3.0 8.0 0.00 0.00 0.00 49 1016.8
20260902190636 98 82 2.0 7.0 0.00 0.00 0.00 50 1017.0
20260902190136 97 224 2.0 4.0 0.00 0.00 0.00 52 1017.1
20260902185636 96 236 3.0 4.0 0.00 0.00 0.00 53 1017.1
20260902185136 97 232 4.0 8.0 0.00 0.00 0.00 52 1017.3
20260902184636 98 238 3.0 6.0 0.00 0.00 0.00 50 1017.3
20260902184136 99 194 2.0 7.0 0.00 0.00 0.00 50 1017.4
20260902183636 98 164 3.0 6.0 0.00 0.00 0.00 50 1017.3
20260902183136 98 96 2.0 6.0 0.00 0.00 0.00 52 1017.4
20260902182636 99 108 1.0 4.0 0.00 0.00 0.00 52 1017.4
20260902182136 98 243 1.0 3.0 0.00 0.00 0.00 55 1017.5
20260902181636 97 65 1.0 4.0 0.00 0.00 0.00 55 1017.6
20260902181136 97 211 1.0 2.0 0.00 0.00 0.00 54 1017.7
20260902180636 97 225 1.0 3.0 0.00 0.00 0.00 55 1017.7
20260902180136 96 27 1.0 4.0 0.00 0.00 0.00 59 1017.8
20260902175636 95 86 1.0 5.0 0.00 0.00 0.00 57 1017.9
20260902175136 95 155 1.0 4.0 0.00 0.00 0.00 57 1017.9
20260902174636 95 172 0.0 2.0 0.00 0.00 0.00 57 1018.0
20260902174136 95 182 1.0 2.0 0.00 0.00 0.00 57 1018.2
20260902173636 96 179 1.0 3.0 0.00 0.00 0.00 56 1018.3
20260902173136 96 179 0.0 3.0 0.00 0.00 0.00 56 1018.4
20260902172636 96 174 1.0 2.0 0.00 0.00 0.00 56 1018.4
20260902172136 96 153 2.0 4.0 0.00 0.00 0.00 56 1018.5
20260902171636 96 204 2.0 4.0 0.00 0.00 0.00 57 1018.5
20260902171136 96 250 2.0 6.0 0.00 0.00 0.00 56 1018.6
20260902170636 96 295 2.0 5.0 0.00 0.00 0.00 57 1018.6
20260902170136 96 234 3.0 7.0 0.00 0.00 0.00 55 1018.7
20260902165636 96 188 4.0 7.0 0.00 0.00 0.00 57 1018.7
20260902165136 95 214 4.0 7.0 0.00 0.00 0.00 59 1018.6
20260902164636 94 260 4.0 7.0 0.00 0.00 0.00 60 1018.8
20260902164136 94 235 3.0 5.0 0.00 0.00 0.00 60 1019.0
20260902163636 95 226 2.0 4.0 0.00 0.00 0.00 58 1018.9
20260902163136 95 148 3.0 4.0 0.00 0.00 0.00 59 1019.0
20260902162636 95 243 3.0 5.0 0.00 0.00 0.00 58 1018.9
20260902162136 96 205 2.0 8.0 0.00 0.00 0.00 58 1018.9
20260902161636 95 42 3.0 5.0 0.00 0.00 0.00 57 1018.8
20260902161136 95 160 3.0 5.0 0.00 0.00 0.00 59 1018.9
20260902160636 95 227 3.0 5.0 0.00 0.00 0.00 58 1019.0
20260902160136 95 180 3.0 5.0 0.00 0.00 0.00 58 1018.9
20260902155637 95 245 2.0 5.0 0.00 0.00 0.00 58 1019.1
20260902155136 95 219 1.0 4.0 0.00 0.00 0.00 60 1018.9
20260902154636 94 323 1.0 3.0 0.00 0.00 0.00 64 1018.9
20260902154136 94 266 2.0 3.0 0.00 0.00 0.00 66 1019.0
20260902153636 93 208 2.0 4.0 0.00 0.00 0.00 65 1019.1
20260902153136 93 232 2.0 3.0 0.00 0.00 0.00 66 1019.2
20260902152636 92 230 2.0 3.0 0.00 0.00 0.00 69 1019.2
20260902152136 92 189 2.0 6.0 0.00 0.00 0.00 68 1019.3
20260902151636 93 340 1.0 2.0 0.00 0.00 0.00 68 1019.1
20260902151136 93 352 1.0 2.0 0.00 0.00 0.00 69 1019.1
20260902150636 92 110 1.0 2.0 0.00 0.00 0.00 72 1019.0
20260902150136 92 105 1.0 3.0 0.00 0.00 0.00 70 1019.1
20260902145636 92 352 1.0 2.0 0.00 0.00 0.00 71 1019.1
20260902145136 91 236 1.0 2.0 0.00 0.00 0.00 71 1019.0
20260902144636 91 313 0.0 2.0 0.00 0.00 0.00 73 1019.0
20260902144136 90 308 0.0 2.0 0.00 0.00 0.00 72 1018.9
20260902143636 90 332 1.0 1.0 0.00 0.00 0.00 74 1019.1
20260902143136 89 334 1.0 2.0 0.00 0.00 0.00 75 1019.1
20260902142636 89 352 0.0 2.0 0.00 0.00 0.00 75 1019.2
20260902142136 88 338 0.0 2.0 0.00 0.00 0.00 78 1019.1
20260902141636 87 343 1.0 3.0 0.00 0.00 0.00 79 1019.0
20260902141136 86 250 1.0 2.0 0.00 0.00 0.00 79 1019.0
20260902140636 85 245 1.0 2.0 0.00 0.00 0.00 80 1018.9
20260902140136 85 271 1.0 5.0 0.00 0.00 0.00 80 1018.8
20260902135636 84 240 1.0 3.0 0.00 0.00 0.00 81 1019.0
20260902135136 84 238 2.0 4.0 0.00 0.00 0.00 81 1019.1
20260902134636 83 251 2.0 4.0 0.00 0.00 0.00 82 1019.2
20260902134136 82 240 2.0 5.0 0.00 0.00 0.00 83 1019.3
20260902133636 82 234 2.0 4.0 0.00 0.00 0.00 84 1019.2
20260902133136 81 225 2.0 4.0 0.00 0.00 0.00 84 1019.2
20260902132636 81 213 2.0 3.0 0.00 0.00 0.00 85 1019.2
20260902132136 80 207 2.0 3.0 0.00 0.00 0.00 86 1019.3
20260902131636 79 177 1.0 3.0 0.00 0.00 0.00 86 1019.2
20260902131136 79 177 1.0 3.0 0.00 0.00 0.00 86 1019.1
20260902130636 78 176 0.0 2.0 0.00 0.00 0.00 88 1019.2
20260902130136 77 164 0.0 2.0 0.00 0.00 0.00 89 1019.1
20260902125636 76 164 1.0 2.0 0.00 0.00 0.00 91 1019.1
20260902125136 75 156 1.0 3.0 0.00 0.00 0.00 92 1019.1
20260902124636 74 157 1.0 3.0 0.00 0.00 0.00 93 1018.9
20260902124136 74 153 1.0 2.0 0.00 0.00 0.00 93 1018.9
20260902123637 74 150 0.0 2.0 0.00 0.00 0.00 93 1018.8
20260902123136 74 150 0.0 2.0 0.00 0.00 0.00 93 1018.8
20260902122637 74 150 0.0 0.0 0.00 0.00 0.00 93 1018.7
20260902122137 73 150 0.0 0.0 0.00 0.00 0.00 94 1018.7
20260902121637 73 150 0.0 0.0 0.00 0.00 0.00 94 1018.7
20260902121137 73 150 0.0 0.0 0.00 0.00 0.00 94 1018.7
20260902120637 73 150 0.0 0.0 0.00 0.00 0.00 93 1018.5
20260902120137 73 150 0.0 0.0 0.00 0.00 0.00 93 1018.5
20260902115637 73 150 0.0 0.0 0.00 0.00 0.00 93 1018.4
20260902115137 73 150 0.0 0.0 0.00 0.00 0.00 93 1018.2
20260902114637 73 150 0.0 0.0 0.00 0.00 0.00 93 1018.2
20260902114137 73 150 0.0 0.0 0.00 0.00 0.00 93 1018.1
20260902113637 73 150 0.0 0.0 0.00 0.00 0.00 93 1018.0
20260902113137 73 150 0.0 0.0 0.00 0.00 0.00 93 1018.1
20260902112637 73 150 0.0 0.0 0.00 0.00 0.00 93 1018.1
20260902112137 73 150 0.0 0.0 0.00 0.00 0.00 93 1018.1
20260902111637 73 150 0.0 0.0 0.00 0.00 0.00 93 1018.0
20260902111137 73 150 0.0 0.0 0.00 0.00 0.00 93 1018.0
20260902110637 73 150 0.0 0.0 0.00 0.00 0.00 93 1017.9
20260902110137 73 150 0.0 0.0 0.00 0.00 0.00 92 1017.8
20260902105637 74 150 0.0 0.0 0.00 0.00 0.00 92 1017.7
20260902105137 74 150 0.0 1.0 0.00 0.00 0.00 92 1017.6
20260902104637 74 150 0.0 0.0 0.00 0.00 0.00 92 1017.4
20260902104137 74 150 0.0 2.0 0.00 0.00 0.00 92 1017.5
20260902103637 74 139 0.0 0.0 0.00 0.00 0.00 92 1017.4
20260902103137 74 139 0.0 0.0 0.00 0.00 0.00 92 1017.5
20260902102637 74 139 0.0 0.0 0.00 0.00 0.00 92 1017.4
20260902102137 74 139 0.0 0.0 0.00 0.00 0.00 92 1017.3
20260902101637 74 139 0.0 0.0 0.00 0.00 0.00 92 1017.4
20260902101137 74 139 0.0 0.0 0.00 0.00 0.00 92 1017.4
20260902100637 74 139 0.0 0.0 0.00 0.00 0.00 92 1017.5
20260902100137 74 139 0.0 0.0 0.00 0.00 0.00 92 1017.4
20260902095637 74 139 0.0 0.0 0.00 0.00 0.00 92 1017.4
20260902095137 74 139 0.0 0.0 0.00 0.00 0.00 92 1017.3
20260902094637 74 139 0.0 0.0 0.00 0.00 0.00 92 1017.3
20260902094137 74 139 0.0 0.0 0.00 0.00 0.00 92 1017.5
20260902093637 74 139 1.0 0.0 0.00 0.00 0.00 92 1017.4
20260902093137 74 139 1.0 2.0 0.00 0.00 0.00 92 1017.4
20260902092637 74 136 1.0 3.0 0.00 0.00 0.00 91 1017.4
20260902092137 75 132 0.0 0.0 0.00 0.00 0.00 89 1017.3
20260902091637 75 132 0.0 0.0 0.00 0.00 0.00 89 1017.4
20260902091137 76 132 0.0 0.0 0.00 0.00 0.00 89 1017.3
20260902090637 76 132 0.0 0.0 0.00 0.00 0.00 88 1017.2
20260902090137 76 132 0.0 0.0 0.00 0.00 0.00 88 1017.3
20260902085637 76 132 0.0 0.0 0.00 0.00 0.00 88 1017.2
20260902085137 77 132 0.0 1.0 0.00 0.00 0.00 87 1017.1
20260902084637 77 132 0.0 1.0 0.00 0.00 0.00 87 1017.1
20260902084137 77 132 0.0 1.0 0.00 0.00 0.00 86 1017.0
20260902083637 77 132 0.0 2.0 0.00 0.00 0.00 87 1016.9
20260902083137 77 132 0.0 2.0 0.00 0.00 0.00 87 1017.0
20260902082637 76 135 0.0 2.0 0.00 0.00 0.00 88 1017.0